�������l�o���
Date,Time,MP-1(��Sv/h),MP-2(��Sv/h),MP-3(��Sv/h),MP-4(��Sv/h),MP-5(��Sv/h),MP-6(��Sv/h),MP-7(��Sv/h),MP-8(��Sv/h),����,����(m/s),���J
2020/08/16,00:00,0.703,1.003,0.633,1.220,0.882,0.397,0.691,0.648,���쐼,1.5,�L
2020/08/16,00:10,0.703,1.005,0.634,1.220,0.882,0.396,0.693,0.649,��,1.2,��
2020/08/16,00:20,0.704,1.005,0.633,1.220,0.882,0.398,0.693,0.650,��,1.2,��
2020/08/16,00:30,0.703,1.008,0.633,1.218,0.884,0.397,0.692,0.648,���k��,1.1,��
2020/08/16,00:40,0.702,1.005,0.634,1.219,0.883,0.398,0.693,0.650,���k��,1.1,��
2020/08/16,00:50,0.702,1.006,0.633,1.219,0.886,0.397,0.693,0.648,�k,0.9,��
2020/08/16,01:00,0.703,1.006,0.634,1.217,0.883,0.397,0.693,0.647,-,CALM,��
2020/08/16,01:10,0.702,1.003,0.633,1.219,0.882,0.398,0.694,0.647,�k��,0.6,��
2020/08/16,01:20,0.702,1.007,0.633,1.218,0.882,0.397,0.693,0.648,�k,1.7,��
2020/08/16,01:30,0.703,1.006,0.633,1.217,0.882,0.397,0.694,0.647,�k,3.5,��
2020/08/16,01:40,0.702,1.005,0.634,1.220,0.882,0.398,0.695,0.647,�k,6.3,��
2020/08/16,01:50,0.701,1.006,0.634,1.218,0.881,0.396,0.694,0.647,�k,7.9,��
2020/08/16,02:00,0.702,1.008,0.631,1.218,0.881,0.397,0.693,0.648,�k,7.1,��
2020/08/16,02:10,0.700,1.006,0.632,1.220,0.883,0.398,0.691,0.648,�k,7.3,��
2020/08/16,02:20,0.701,1.007,0.633,1.218,0.883,0.396,0.692,0.648,�k,7.5,��
2020/08/16,02:30,0.701,1.007,0.633,1.220,0.883,0.396,0.692,0.647,�k�k��,6.8,��
2020/08/16,02:40,0.701,1.007,0.632,1.219,0.883,0.398,0.691,0.645,�k�k��,6.8,��
2020/08/16,02:50,0.699,1.007,0.632,1.218,0.881,0.397,0.692,0.647,�k,6.5,��
2020/08/16,03:00,0.702,1.008,0.633,1.219,0.882,0.397,0.693,0.648,�k�k��,6.1,��
2020/08/16,03:10,0.702,1.006,0.632,1.220,0.883,0.397,0.693,0.647,�k�k��,6.2,��
2020/08/16,03:20,0.702,1.008,0.632,1.223,0.882,0.397,0.694,0.648,�k�k��,6.1,��
2020/08/16,03:30,0.700,1.008,0.631,1.220,0.883,0.396,0.692,0.648,�k�k��,5.5,��
2020/08/16,03:40,0.701,1.005,0.633,1.219,0.881,0.395,0.692,0.647,�k�k��,6.6,��
2020/08/16,03:50,0.701,1.005,0.633,1.218,0.882,0.396,0.692,0.648,�k�k��,7.6,��
2020/08/16,04:00,0.701,1.008,0.632,1.220,0.883,0.397,0.692,0.648,�k�k��,7.7,��
2020/08/16,04:10,0.701,1.008,0.632,1.221,0.884,0.396,0.692,0.645,�k,6.4,��
2020/08/16,04:20,0.701,1.005,0.632,1.218,0.882,0.396,0.690,0.647,�k�k��,7.3,��
2020/08/16,04:30,0.699,1.005,0.632,1.219,0.884,0.395,0.693,0.647,�k�k��,7.3,��
2020/08/16,04:40,0.700,1.006,0.633,1.219,0.883,0.395,0.692,0.646,�k,7.2,��
2020/08/16,04:50,0.699,1.007,0.633,1.217,0.882,0.395,0.692,0.648,�k,6.3,��
2020/08/16,05:00,0.699,1.005,0.632,1.218,0.883,0.394,0.692,0.648,�k,4.9,��
2020/08/16,05:10,0.699,1.003,0.631,1.219,0.880,0.393,0.691,0.647,�k,4.9,��
2020/08/16,05:20,0.699,1.007,0.633,1.220,0.886,0.394,0.691,0.648,�k,5.1,��
2020/08/16,05:30,0.700,1.004,0.631,1.219,0.881,0.394,0.691,0.647,�k,4.4,��
2020/08/16,05:40,0.700,1.005,0.632,1.220,0.882,0.393,0.691,0.646,�k�k��,5.0,��
2020/08/16,05:50,0.700,1.005,0.632,1.218,0.883,0.394,0.692,0.647,�k�k��,5.4,��
2020/08/16,06:00,0.700,1.005,0.633,1.222,0.883,0.393,0.692,0.648,�k�k��,5.7,��
2020/08/16,06:10,0.701,1.006,0.631,1.223,0.883,0.395,0.692,0.648,�k,5.0,��
2020/08/16,06:20,0.702,1.008,0.631,1.218,0.884,0.393,0.693,0.648,�k,4.6,��
2020/08/16,06:30,0.701,1.007,0.632,1.222,0.882,0.395,0.690,0.647,�k�k��,4.6,��
2020/08/16,06:40,0.699,1.005,0.632,1.221,0.882,0.395,0.693,0.646,�k�k��,4.5,��
2020/08/16,06:50,0.701,1.005,0.632,1.221,0.880,0.395,0.691,0.649,�k�k��,4.4,��
2020/08/16,07:00,0.699,1.006,0.632,1.221,0.882,0.396,0.691,0.646,�k��,5.4,��
2020/08/16,07:10,0.700,1.008,0.633,1.218,0.884,0.393,0.692,0.647,�k�k��,6.4,��
2020/08/16,07:20,0.703,1.007,0.633,1.222,0.882,0.394,0.693,0.646,�k�k��,5.5,��
2020/08/16,07:30,0.701,1.006,0.634,1.220,0.884,0.394,0.692,0.648,�k��,5.1,��
2020/08/16,07:40,0.701,1.009,0.631,1.222,0.882,0.395,0.692,0.647,�k��,5.5,��
2020/08/16,07:50,0.702,1.006,0.633,1.222,0.884,0.395,0.691,0.648,�k�k��,6.0,�L
2020/08/16,08:00,0.700,1.006,0.633,1.220,0.885,0.394,0.692,0.646,�k�k��,6.1,�L
2020/08/16,08:10,0.701,1.003,0.633,1.221,0.882,0.395,0.693,0.647,�k�k��,6.0,�L
2020/08/16,08:20,0.701,1.005,0.633,1.222,0.882,0.397,0.690,0.648,�k�k��,5.3,�L
2020/08/16,08:30,0.702,1.000,0.631,1.218,0.878,0.397,0.691,0.647,�k�k��,4.0,�L
2020/08/16,08:40,0.696,0.998,0.631,1.216,0.876,0.396,0.689,0.646,�k,1.1,�L
2020/08/16,08:50,0.698,0.993,0.630,1.212,0.872,0.399,0.690,0.646,�k�k��,3.5,�L
2020/08/16,09:00,0.697,0.992,0.629,1.214,0.872,0.398,0.690,0.647,�k�k��,3.6,�L
2020/08/16,09:10,0.698,0.992,0.628,1.212,0.872,0.396,0.690,0.646,�k�k��,3.4,�L
2020/08/16,09:20,0.695,0.990,0.629,1.209,0.872,0.396,0.690,0.647,�k�k��,3.1,��
2020/08/16,09:30,0.697,0.991,0.627,1.213,0.870,0.396,0.689,0.645,�k��,2.2,��
2020/08/16,09:40,0.691,0.991,0.627,1.211,0.868,0.395,0.688,0.644,�k�k��,2.8,�L
2020/08/16,09:50,0.693,0.989,0.628,1.210,0.869,0.395,0.689,0.646,�k�k��,4.8,�L
2020/08/16,10:00,0.690,0.986,0.627,1.208,0.867,0.397,0.687,0.645,�k��,4.4,�L
2020/08/16,10:10,0.691,0.983,0.624,1.207,0.866,0.395,0.687,0.645,���k��,3.8,�L
2020/08/16,10:20,0.691,0.983,0.625,1.203,0.864,0.395,0.686,0.645,���k��,3.7,�L
2020/08/16,10:30,0.691,0.983,0.625,1.202,0.865,0.396,0.687,0.645,�k��,4.2,��
2020/08/16,10:40,0.688,0.983,0.624,1.203,0.866,0.393,0.686,0.645,�k��,4.7,�L
2020/08/16,10:50,0.692,0.981,0.623,1.205,0.864,0.395,0.689,0.645,�k��,3.8,��
2020/08/16,11:00,0.691,0.982,0.624,1.202,0.865,0.394,0.689,0.646,���k��,2.0,��
2020/08/16,11:10,0.691,0.982,0.624,1.203,0.866,0.393,0.687,0.645,���k��,3.2,��
2020/08/16,11:20,0.692,0.982,0.624,1.203,0.863,0.393,0.688,0.643,���k��,3.5,��
2020/08/16,11:30,0.691,0.983,0.622,1.202,0.865,0.394,0.687,0.644,���k��,4.6,��
2020/08/16,11:40,0.690,0.981,0.623,1.201,0.863,0.394,0.686,0.643,�k��,3.3,��
2020/08/16,11:50,0.692,0.981,0.623,1.199,0.863,0.393,0.687,0.643,���k��,2.5,��
2020/08/16,12:00,0.688,0.984,0.623,1.199,0.864,0.394,0.687,0.644,���k��,4.0,�L
2020/08/16,12:10,0.689,0.982,0.624,1.202,0.863,0.393,0.688,0.644,���k��,4.7,��
2020/08/16,12:20,0.689,0.980,0.623,1.202,0.864,0.393,0.690,0.643,���k��,3.8,��
2020/08/16,12:30,0.689,0.981,0.622,1.202,0.865,0.393,0.687,0.644,�k��,3.0,��
2020/08/16,12:40,0.688,0.981,0.622,1.206,0.865,0.393,0.688,0.641,���k��,2.8,��
2020/08/16,12:50,0.687,0.983,0.622,1.204,0.863,0.394,0.689,0.643,���k��,1.1,��
2020/08/16,13:00,0.689,0.982,0.623,1.208,0.865,0.394,0.687,0.642,�k��,2.3,��
2020/08/16,13:10,0.690,0.985,0.624,1.207,0.865,0.394,0.687,0.643,�k�k��,2.6,��
2020/08/16,13:20,0.691,0.986,0.625,1.206,0.865,0.394,0.689,0.643,�k,1.5,��
2020/08/16,13:30,0.690,0.985,0.626,1.208,0.867,0.394,0.688,0.643,�k�k��,2.3,��
2020/08/16,13:40,0.691,0.984,0.625,1.207,0.865,0.394,0.686,0.643,�k�k��,2.3,��
2020/08/16,13:50,0.689,0.986,0.625,1.210,0.868,0.394,0.688,0.643,�k��,2.0,��
2020/08/16,14:00,0.690,0.986,0.627,1.205,0.868,0.392,0.688,0.644,���k��,1.7,��
2020/08/16,14:10,0.692,0.986,0.625,1.207,0.867,0.394,0.687,0.643,�k�k��,2.3,��
2020/08/16,14:20,0.689,0.984,0.627,1.208,0.869,0.394,0.689,0.642,�k��,1.7,��
2020/08/16,14:30,0.690,0.988,0.626,1.208,0.870,0.392,0.691,0.644,�k�k��,1.7,��
2020/08/16,14:40,0.691,0.988,0.626,1.207,0.869,0.393,0.690,0.644,�k�k��,1.5,��
2020/08/16,14:50,0.691,0.990,0.625,1.206,0.870,0.393,0.687,0.643,�k�k��,2.3,��
2020/08/16,15:00,0.693,0.987,0.627,1.208,0.869,0.394,0.690,0.644,�k��,1.5,��
2020/08/16,15:10,0.689,0.991,0.626,1.206,0.872,0.394,0.688,0.644,-,CALM,��
2020/08/16,15:20,0.694,0.988,0.625,1.203,0.870,0.393,0.689,0.645,���쓌,1.7,��
2020/08/16,15:30,0.693,0.988,0.628,1.206,0.871,0.393,0.687,0.643,�쓌,0.9,��
2020/08/16,15:40,0.694,0.991,0.628,1.208,0.873,0.395,0.691,0.644,��쓌,1.2,��
2020/08/16,15:50,0.692,0.988,0.626,1.204,0.875,0.393,0.690,0.644,��,2.6,��
2020/08/16,16:00,0.694,0.991,0.627,1.204,0.873,0.395,0.689,0.644,��,2.6,��
2020/08/16,16:10,0.693,0.993,0.627,1.207,0.874,0.394,0.691,0.644,��쓌,2.3,��
2020/08/16,16:20,0.695,0.991,0.627,1.208,0.874,0.396,0.688,0.643,��,2.8,��
2020/08/16,16:30,0.695,0.991,0.628,1.207,0.872,0.397,0.690,0.643,��,3.1,��
2020/08/16,16:40,0.695,0.992,0.628,1.208,0.872,0.396,0.691,0.645,��쐼,3.0,��
2020/08/16,16:50,0.695,0.992,0.628,1.209,0.873,0.396,0.687,0.643,��,2.6,��
2020/08/16,17:00,0.695,0.991,0.631,1.211,0.874,0.394,0.688,0.642,��쐼,3.4,��
2020/08/16,17:10,0.694,0.990,0.628,1.210,0.874,0.395,0.688,0.643,��쐼,2.8,��
2020/08/16,17:20,0.695,0.992,0.629,1.212,0.874,0.396,0.690,0.644,��,3.1,��
2020/08/16,17:30,0.696,0.993,0.629,1.208,0.873,0.396,0.690,0.645,��,4.6,��
2020/08/16,17:40,0.693,0.993,0.629,1.209,0.874,0.396,0.688,0.645,��,4.4,��
2020/08/16,17:50,0.693,0.990,0.628,1.211,0.875,0.396,0.689,0.644,��,4.7,��
2020/08/16,18:00,0.694,0.991,0.629,1.211,0.874,0.395,0.687,0.644,��,3.6,��
2020/08/16,18:10,0.694,0.991,0.628,1.209,0.875,0.395,0.689,0.646,��,3.9,��
2020/08/16,18:20,0.694,0.991,0.628,1.209,0.873,0.394,0.689,0.646,��,4.4,��
2020/08/16,18:30,0.693,0.990,0.628,1.209,0.874,0.394,0.689,0.645,��,5.1,��
2020/08/16,18:40,0.696,0.991,0.627,1.211,0.874,0.394,0.689,0.645,��,5.1,��
2020/08/16,18:50,0.695,0.992,0.628,1.210,0.873,0.395,0.690,0.645,��,4.9,��
2020/08/16,19:00,0.695,0.990,0.628,1.209,0.872,0.394,0.689,0.645,��,5.6,��
2020/08/16,19:10,0.694,0.991,0.629,1.209,0.874,0.396,0.689,0.646,��,5.4,��
2020/08/16,19:20,0.695,0.992,0.626,1.209,0.872,0.395,0.689,0.645,��,5.0,��
2020/08/16,19:30,0.695,0.991,0.628,1.207,0.873,0.394,0.688,0.644,��,4.5,��
2020/08/16,19:40,0.696,0.992,0.627,1.211,0.872,0.394,0.691,0.645,��쐼,3.0,��
2020/08/16,19:50,0.693,0.992,0.628,1.210,0.875,0.395,0.689,0.646,��,2.0,��
2020/08/16,20:00,0.694,0.993,0.629,1.212,0.874,0.396,0.689,0.645,��,1.5,��
2020/08/16,20:10,0.692,0.993,0.628,1.212,0.873,0.395,0.690,0.646,��,0.9,��
2020/08/16,20:20,0.695,0.994,0.629,1.212,0.874,0.396,0.689,0.646,��쐼,0.8,��
2020/08/16,20:30,0.696,0.995,0.630,1.211,0.872,0.397,0.692,0.647,-,CALM,��
2020/08/16,20:40,0.695,0.994,0.628,1.210,0.876,0.395,0.690,0.644,��,0.6,��
2020/08/16,20:50,0.694,0.992,0.630,1.214,0.874,0.394,0.689,0.645,��쐼,1.1,��
2020/08/16,21:00,0.696,0.995,0.629,1.211,0.874,0.396,0.691,0.647,�쐼,1.7,��
2020/08/16,21:10,0.694,0.993,0.630,1.213,0.876,0.396,0.692,0.645,���쐼,2.0,��
2020/08/16,21:20,0.696,0.994,0.629,1.213,0.875,0.396,0.690,0.644,���쐼,1.5,��
2020/08/16,21:30,0.696,0.994,0.629,1.212,0.875,0.395,0.692,0.645,�쐼,3.7,��
2020/08/16,21:40,0.695,0.991,0.629,1.210,0.873,0.395,0.690,0.646,���쐼,3.7,��
2020/08/16,21:50,0.696,0.993,0.630,1.213,0.875,0.396,0.691,0.644,��,2.3,��
2020/08/16,22:00,0.697,0.993,0.628,1.211,0.874,0.395,0.691,0.645,��,2.2,��
2020/08/16,22:10,0.695,0.993,0.629,1.212,0.875,0.396,0.691,0.645,���k��,0.9,��
2020/08/16,22:20,0.696,0.993,0.632,1.214,0.875,0.397,0.691,0.646,�k��,0.9,��
2020/08/16,22:30,0.695,0.993,0.630,1.214,0.874,0.396,0.689,0.646,�k,1.4,��
2020/08/16,22:40,0.694,0.994,0.631,1.213,0.874,0.396,0.690,0.646,�k,1.2,��
2020/08/16,22:50,0.697,0.992,0.631,1.213,0.876,0.395,0.691,0.645,��쐼,0.9,��
2020/08/16,23:00,0.694,0.994,0.629,1.212,0.874,0.397,0.689,0.646,���k��,0.9,��
2020/08/16,23:10,0.696,0.992,0.630,1.211,0.874,0.398,0.690,0.646,�k�k��,0.6,��
2020/08/16,23:20,0.694,0.993,0.629,1.213,0.874,0.395,0.689,0.646,-,CALM,��
2020/08/16,23:30,0.695,0.995,0.631,1.212,0.875,0.397,0.692,0.647,��,0.8,��
2020/08/16,23:40,0.694,0.992,0.630,1.212,0.875,0.396,0.690,0.646,�쓌,0.8,��
2020/08/16,23:50,0.694,0.995,0.630,1.214,0.875,0.397,0.691,0.646,�쐼,0.8,��
